Simultaneous Nadir Overpasses (SNOs) Predictions

Prediction of SNOs between NOAA-20 and METOP-B Satellite Orbit:

Table of predicted SNOs for the next 14.0 days since TLE Epoch: 7/9/2022
Index Date (NOAA-20) Time (NOAA-20) Lat,Lon (NOAA-20) SZA (NOAA-20 ) Date (METOP-B) Time (METOP-B) Lat,Lon (METOP-B) SZA (METOP-B ) Distance(km) Time Diff (sec)
1 07/19/2022 14:10:19 73.45, -42.18 52.95 07/19/2022 14:11:26 73.42, -39.64 52.76 80.86 67
2 07/19/2022 15:01:02 -73.39, 125.28 127.12 07/19/2022 15:02:10 -73.33, 127.49 127.32 70.86 68
3 07/19/2022 15:51:43 73.16, -66.90 52.64 07/19/2022 15:52:54 73.09, -65.69 52.49 39.86 71
4 07/19/2022 16:42:26 -73.10, 100.55 127.43 07/19/2022 16:43:38 -73.01, 101.45 127.59 30.80 72
5 07/19/2022 17:33:07 72.86, -91.65 52.32 07/19/2022 17:34:20 72.87, -91.51 52.30 4.54 73
6 07/19/2022 18:23:51 -72.85, 75.69 127.69 07/19/2022 18:25:03 -72.83, 75.74 127.73 2.62 72
7 07/19/2022 19:14:36 72.82,-116.93 52.29 07/19/2022 19:15:42 72.85,-116.89 52.30 3.14 66
8 07/19/2022 20:05:20 -72.81, 50.41 127.72 07/19/2022 20:06:25 -72.81, 50.36 127.73 1.78 65
9 07/19/2022 20:56:06 72.83,-142.32 52.31 07/19/2022 20:57:04 72.83,-142.28 52.29 1.43 58
10 07/19/2022 21:46:50 -72.82, 25.02 127.70 07/19/2022 21:47:46 -72.84, 25.08 127.69 3.19 56
11 07/19/2022 22:37:35 72.79,-167.61 52.28 07/19/2022 22:38:26 72.80,-167.66 52.29 2.75 51
12 07/19/2022 23:28:20 -72.83, -0.37 127.68 07/19/2022 23:29:08 -72.82, -0.31 127.70 2.17 48
13 07/20/2022 00:19:05 72.79, 167.00 52.30 07/20/2022 00:19:48 72.78, 166.95 52.28 2.20 43
14 07/20/2022 01:09:49 -72.78, -25.66 127.71 07/20/2022 01:10:30 -72.80, -25.69 127.70 2.06 41
15 07/20/2022 02:00:35 72.80, 141.61 52.32 07/20/2022 02:01:09 72.81, 141.67 52.32 2.15 34
16 07/20/2022 02:51:19 -72.79, -51.05 127.69 07/20/2022 02:51:52 -72.78, -51.08 127.71 1.93 33
17 07/20/2022 03:42:05 72.81, 116.22 52.34 07/20/2022 03:42:31 72.79, 116.29 52.31 3.07 26
18 07/20/2022 04:32:49 -72.80, -76.44 127.67 07/20/2022 04:33:13 -72.80, -76.36 127.67 2.68 24
19 07/20/2022 05:23:34 72.77, 90.94 52.31 07/20/2022 05:23:53 72.77, 90.90 52.31 1.23 19
20 07/20/2022 06:14:18 -72.76,-101.72 127.70 07/20/2022 06:14:35 -72.78,-101.74 127.68 3.17 17
21 07/20/2022 07:05:04 72.77, 65.55 52.33 07/20/2022 07:05:15 72.75, 65.52 52.30 3.38 11
22 07/20/2022 07:55:48 -72.76,-127.11 127.68 07/20/2022 07:55:57 -72.76,-127.13 127.68 0.55 9
23 07/20/2022 08:46:34 72.78, 40.16 52.35 07/20/2022 08:46:36 72.78, 40.24 52.34 2.74 2
24 07/20/2022 09:37:18 -72.77,-152.50 127.66 07/20/2022 09:37:19 -72.74,-152.51 127.69 3.47 1
25 07/20/2022 10:28:03 72.74, 14.87 52.32 07/20/2022 10:27:58 72.75, 14.85 52.33 1.63 5
26 07/20/2022 11:18:48 -72.78,-177.89 127.64 07/20/2022 11:18:40 -72.77,-177.79 127.65 3.47 8
27 07/20/2022 12:09:33 72.75, -10.52 52.34 07/20/2022 12:09:20 72.73, -10.53 52.33 1.88 13
28 07/20/2022 13:00:17 -72.74, 156.82 127.67 07/20/2022 13:00:02 -72.75, 156.82 127.66 1.24 15
29 07/20/2022 13:51:03 72.76, -35.91 52.36 07/20/2022 13:50:41 72.76, -35.81 52.37 3.19 22
30 07/20/2022 14:41:47 -72.74, 131.43 127.65 07/20/2022 14:41:24 -72.73, 131.44 127.66 2.04 23
31 07/20/2022 15:32:32 72.71, -61.19 52.33 07/20/2022 15:32:03 72.74, -61.20 52.36 2.89 29
32 07/20/2022 16:23:16 -72.70, 106.15 127.68 07/20/2022 16:22:46 -72.70, 106.05 127.67 3.07 30
33 07/20/2022 17:14:02 72.72, -86.59 52.35 07/20/2022 17:13:25 72.72, -86.58 52.36 0.42 37
34 07/20/2022 18:04:46 -72.71, 80.76 127.66 07/20/2022 18:04:07 -72.73, 80.77 127.63 2.73 39
35 07/20/2022 18:55:32 72.73,-111.98 52.37 07/20/2022 18:54:47 72.69,-111.97 52.35 3.73 45
36 07/20/2022 19:46:16 -72.72, 55.36 127.64 07/20/2022 19:45:29 -72.71, 55.39 127.63 0.98 47
37 07/20/2022 20:37:01 72.69,-137.26 52.34 07/20/2022 20:36:09 72.67,-137.35 52.34 3.34 52
38 07/20/2022 21:27:45 -72.67, 30.08 127.67 07/20/2022 21:26:51 -72.69, 30.00 127.64 3.04 54
39 07/20/2022 22:18:31 72.69,-162.65 52.36 07/20/2022 22:17:30 72.70,-162.63 52.38 1.15 61
40 07/20/2022 23:09:15 -72.68, 4.69 127.65 07/20/2022 23:08:13 -72.67, 4.62 127.64 2.78 62
41 07/21/2022 00:00:01 72.70, 171.96 52.38 07/20/2022 23:58:52 72.68, 171.98 52.38 2.46 69
42 07/21/2022 00:50:45 -72.69, -20.70 127.63 07/21/2022 00:49:34 -72.70, -20.66 127.61 1.55 71
43 07/21/2022 01:41:29 72.61, 146.78 52.29 07/21/2022 01:40:15 72.61, 146.49 52.33 9.39 74
44 07/21/2022 02:32:12 -72.54, -45.78 127.77 07/21/2022 02:30:58 -72.57, -46.25 127.70 16.00 74
45 07/21/2022 03:22:53 72.31, 122.00 51.98 07/21/2022 03:21:42 72.33, 120.60 52.10 47.27 71
46 07/21/2022 04:13:36 -72.25, -70.57 128.09 07/21/2022 04:12:26 -72.24, -72.24 127.97 56.82 70
47 07/21/2022 05:04:17 72.01, 97.20 51.67 07/21/2022 05:03:10 72.00, 94.63 51.84 88.52 67
48 07/21/2022 05:55:00 -71.95, -95.37 128.40 07/21/2022 05:53:54 -71.91, -98.21 128.23 98.02 66



Historial Predications of SNOs between NOAA-20 and METOP-B
